Folsom Lake Weather Center

Moon Phase Calendar



Folsom Lake Water Level
Online Cameras

 


      

Current Conditions in Granite Bay
11/28/2021 7:26:59 PM

53°F
Feels Like 51
Clear
Humidity
68%
Pressure
30.18"
Wind
2.7 mph (NE)
Dew Point
43°F
UV Index
0/10 (Low)
Visibility
6 mi

Hourly Forecast

Date & Time Sun, Nov 28
7:00 PM
Sun, Nov 28
8:00 PM
Sun, Nov 28
9:00 PM
Sun, Nov 28
10:00 PM
Sun, Nov 28
11:00 PM
Mon, Nov 29
12:00 AM
Mon, Nov 29
1:00 AM
Mon, Nov 29
2:00 AM
Mon, Nov 29
3:00 AM
Mon, Nov 29
4:00 AM
Mon, Nov 29
5:00 AM
Mon, Nov 29
6:00 AM
Mon, Nov 29
7:00 AM
Mon, Nov 29
8:00 AM
Mon, Nov 29
9:00 AM
Mon, Nov 29
10:00 AM
Mon, Nov 29
11:00 AM
Mon, Nov 29
12:00 PM
Mon, Nov 29
1:00 PM
Mon, Nov 29
2:00 PM
Mon, Nov 29
3:00 PM
Mon, Nov 29
4:00 PM
Mon, Nov 29
5:00 PM
Mon, Nov 29
6:00 PM
Mon, Nov 29
7:00 PM
Mon, Nov 29
8:00 PM
Mon, Nov 29
9:00 PM
Mon, Nov 29
10:00 PM
Mon, Nov 29
11:00 PM
Tue, Nov 30
12:00 AM
Tue, Nov 30
1:00 AM
Tue, Nov 30
2:00 AM
Tue, Nov 30
3:00 AM
Tue, Nov 30
4:00 AM
Tue, Nov 30
5:00 AM
Tue, Nov 30
6:00 AM
Tue, Nov 30
7:00 AM
Tue, Nov 30
8:00 AM
Tue, Nov 30
9:00 AM
Tue, Nov 30
10:00 AM
Tue, Nov 30
11:00 AM
Tue, Nov 30
12:00 PM
Tue, Nov 30
1:00 PM
Tue, Nov 30
2:00 PM
Tue, Nov 30
3:00 PM
Tue, Nov 30
4:00 PM
Tue, Nov 30
5:00 PM
Tue, Nov 30
6:00 PM
Condition
Clear

Clear

Clear

Clear

Clear

Clear

Clear

Clear

Clear

Clear

Clear

Clear

Clear

Clear

Clear

Clear

Clear

Clear

Clear

Clear

Clear

Clear

Clear

Clear

Clear

Clouds

Clouds

Clouds

Clouds

Clouds

Clouds

Clouds

Clouds

Clouds

Clear

Clear

Clear

Clear

Clear

Clear

Clear

Clear

Clear

Clear

Clear

Clear

Clear

Clear
Temperature 53°F54°F54°F55°F55°F55°F54°F54°F54°F53°F53°F53°F53°F55°F60°F63°F65°F67°F68°F68°F67°F63°F59°F58°F57°F56°F56°F55°F55°F55°F54°F54°F53°F53°F52°F52°F52°F54°F59°F62°F64°F66°F68°F68°F67°F63°F59°F58°F
Feels Like 51°F52°F53°F53°F53°F53°F53°F52°F52°F51°F51°F51°F50°F53°F58°F62°F64°F65°F67°F67°F66°F62°F58°F57°F56°F55°F55°F54°F54°F53°F52°F52°F52°F51°F50°F50°F50°F52°F57°F60°F62°F65°F66°F66°F65°F61°F57°F56°F
Cloudiness 0%0%0%0%0%0%0%0%0%0%0%0%0%0%0%0%0%0%0%0%0%0%5%8%8%15%19%18%52%37%33%30%26%33%2%3%3%3%3%2%0%0%0%0%1%1%0%0%
Visibility 6 mi6 mi6 mi6 mi6 mi6 mi6 mi6 mi6 mi6 mi6 mi6 mi6 mi6 mi6 mi6 mi6 mi6 mi6 mi6 mi6 mi6 mi6 mi6 mi6 mi6 mi6 mi6 mi6 mi6 mi6 mi6 mi6 mi6 mi6 mi6 mi6 mi6 mi6 mi6 mi6 mi6 mi6 mi6 mi6 mi6 mi6 mi6 mi
Precipitation 0%0%0%0%0%0%0%0%0%0%0%0%0%0%0%0%0%0%0%0%0%0%0%0%0%0%0%0%0%0%0%0%0%0%0%0%0%0%0%0%0%0%0%0%0%0%0%0%
Humidity 68%69%69%68%67%67%66%65%64%63%63%62%61%59%51%46%46%45%44%45%49%59%66%69%70%70%70%69%68%67%67%66%65%65%66%67%63%60%54%50%47%44%42%42%45%54%60%62%
Dew Point 43°F44°F44°F44°F44°F43°F43°F42°F41°F41°F40°F40°F39°F40°F41°F42°F43°F44°F45°F46°F47°F48°F47°F47°F47°F46°F46°F45°F44°F43°F43°F42°F41°F41°F41°F40°F39°F40°F41°F42°F43°F43°F43°F43°F44°F46°F44°F44°F
Pressure 30.18"30.18"30.18"30.18"30.18"30.18"30.18"30.18"30.18"30.18"30.18"30.18"30.18"30.18"30.18"30.18"30.18"30.15"30.12"30.09"30.09"30.09"30.09"30.09"30.12"30.12"30.12"30.12"30.12"30.12"30.12"30.15"30.12"30.12"30.12"30.15"30.15"30.12"30.15"30.15"30.12"30.12"30.09"30.06"30.06"30.06"30.06"30.06"
Wind Speed 2.7 mph3.1 mph2.9 mph2.4 mph2.1 mph2.6 mph2.5 mph2.6 mph2.4 mph2.4 mph2.2 mph2.7 mph2.6 mph2.4 mph0.9 mph3 mph5.1 mph3.9 mph3.9 mph4.4 mph4.6 mph3.1 mph2.5 mph3.4 mph3.3 mph3.1 mph2.8 mph2.2 mph2.5 mph2 mph2 mph3.1 mph3.6 mph0.7 mph2.4 mph3.2 mph3.1 mph1.4 mph1.2 mph2.2 mph2.7 mph2.9 mph3 mph3.6 mph3.5 mph2.1 mph1.7 mph2.8 mph
Wind
Direction
54°
NE
54°
NE
58°
ENE
81°
E
70°
ENE
69°
ENE
59°
ENE
77°
ENE
79°
E
80°
E
50°
NE
43°
NE
57°
ENE
22°
NNE
17°
NNE
298°
WNW
305°
NW
307°
NW
306°
NW
312°
NW
315°
NW
326°
NW
14°
NNE
27°
NNE
39°
NE
41°
NE
70°
ENE
42°
NE
88°
E
79°
E
51°
NE
69°
ENE
107°
ESE
50°
NE
350°
N
80°
E
79°
E
56°
NE
301°
WNW
277°
W
289°
WNW
296°
WNW
294°
WNW
302°
WNW
307°
NW
316°
NW
37°
NE
65°
ENE

Daily Forecast

Date High Low Precip. Humidity
Today
Nov 28

Clear
67 °F
51 °F
0%
46%
Monday
Nov 29

Clear
68 °F
53 °F
0%
46%
Tuesday
Nov 30

Clear
68 °F
52 °F
0%
50%
Wednesday
Dec 1

Clear
70 °F
53 °F
0%
38%
Thursday
Dec 2

Clouds
70 °F
54 °F
0%
40%
Friday
Dec 3

Clear
69 °F
53 °F
0%
44%
Saturday
Dec 4

Clear
66 °F
51 °F
0%
46%
Sunday
Dec 5

Clouds
63 °F
49 °F
0%
56%
Monday
Dec 6

Rain
56 °F
49 °F
46%
62%
Tuesday
Dec 7

Rain
54 °F
39 °F
36%
48%
Wednesday
Dec 8

Clear
56 °F
40 °F
0%
33%
Thursday
Dec 9

Rain
58 °F
44 °F
26%
34%
Friday
Dec 10

Rain
50 °F
41 °F
100%
90%
Saturday
Dec 11

Clouds
49 °F
39 °F
20%
68%
Sunday
Dec 12

Rain
49 °F
36 °F
98%
52%
Monday
Dec 13

Rain
48 °F
37 °F
88%
77%

Temperature 8-14 Day Outlook



Precipitation 8-14 Day Outlook




Quick Links
Folsom Lake News
Folsom Lake Photos
Folsom Lake Videos




About Us
Contact Us
Site Map
Search Site
Advertise With Us
   
Folsom.USLakes.info
THE FOLSOM LAKE WEBSITE

Copyright 2021, Lakes Online
Privacy    |    Legal